photos/custom search


Notice: Undefined offset: 1 in /home/andycampbell/andyc.org/photoset/search.php on line 78

Notice: Undefined offset: 1 in /home/andycampbell/andyc.org/photoset/search.php on line 78
photos 1 - 24 / 34next >
IMG_0635 || Canon Powe/5.4 - 16.2mm@5 | 1/60s | f2.8 | ISO50 || 2005-05-27 09:09:41
IMG_1012 || Canon Powe/5.4 - 16.2mm@5 | 1/60s | f2.8 | ISO50 || 2005-05-31 13:00:34
IMG_1084 || Canon Powe/5.4 - 16.2mm@5 | 1/60s | f2.8 | ISO50 || 2005-06-02 14:24:37
IMG_4182 || Canon Powe/5.4 - 16.2mm@5 | 1/60s | f2.8 | ISO50 || 2006-04-29 11:45:48
20050730_014 || Canon Powe/5.4 - 16.2mm@5 | 1/60s | f2.8 | ISO50 || 2005-07-30 19:28:28
20050730_015 || Canon Powe/5.4 - 16.2mm@5 | 1/60s | f2.8 | ISO50 || 2005-07-30 23:09:31
20050730_016 || Canon Powe/5.4 - 16.2mm@5 | 1/60s | f2.8 | ISO50 || 2005-07-30 23:10:14
Seiko Kinetic || Canon Powe/5.4 - 16.2mm@5 | 1/60s | f2.8 | ISO50 || 2005-12-31 13:30:02
20061219_026 || Canon Powe/5.4 - 16.2mm@5 | 1/60s | f2.8 | ISO50 || 2006-12-19 23:25:57
20070226_036 || Canon Powe/5.4 - 16.2mm@5 | 1/60s | f2.8 | ISO50 || 2007-02-26 07:51:58
IMG_2957 || Canon Powe/5.4 - 16.2mm@5 | 1/60s | f2.8 | ISO50 || 2005-08-12 23:15:34
IMG_2958 || Canon Powe/5.4 - 16.2mm@5 | 1/60s | f2.8 | ISO50 || 2005-08-12 23:15:47
IMG_2966 || Canon Powe/5.4 - 16.2mm@5 | 1/60s | f2.8 | ISO50 || 2005-08-13 13:28:43
IMG_2967 || Canon Powe/5.4 - 16.2mm@5 | 1/60s | f2.8 | ISO50 || 2005-08-13 13:28:54
IMG_3371 || Canon Powe/5.4 - 16.2mm@5 | 1/60s | f2.8 | ISO50 || 2005-08-27 22:01:47
IMG_3507 || Canon Powe/5.4 - 16.2mm@5 | 1/60s | f2.8 | ISO50 || 2005-08-31 12:43:44
IMG_3876 || Canon Powe/5.4 - 16.2mm@5 | 1/60s | f2.8 | ISO50 || 2006-03-09 01:12:47
IMG_3877 || Canon Powe/5.4 - 16.2mm@5 | 1/60s | f2.8 | ISO50 || 2006-03-09 01:13:05
IMG_3881 || Canon Powe/5.4 - 16.2mm@5 | 1/60s | f2.8 | ISO50 || 2006-03-09 01:15:02
IMG_3903 || Canon Powe/5.4 - 16.2mm@5 | 1/60s | f2.8 | ISO50 || 2006-03-16 12:39:59
IMG_4435 || Canon Powe/5.4 - 16.2mm@5 | 1/60s | f2.8 | ISO50 || 2007-03-02 14:00:12
IMG_4473 || Canon Powe/5.4 - 16.2mm@5 | 1/60s | f2.8 | ISO50 || 2007-03-03 12:42:23
IMG_4492 || Canon Powe/5.4 - 16.2mm@5 | 1/60s | f2.8 | ISO50 || 2007-03-03 18:47:45
IMG_1357 || Canon Powe/5.4 - 16.2mm@5 | 1/60s | f2.8 | ISO50 || 2005-07-16 21:11:13